Weather Roundup
Issued by NWS

Home | Current Version | Previous Version | Graphics & Text | Print | Product List | Glossary Off
Versions: 1 2 3 4 5 6 7 8 9 10 11 12 13 14 15 16 17 18 19 20 21 22 23 24 25 26 27 28 29 30 31 32 33 34 35 36 37 38 39 40 41 42 43 44 45 46 47 48 49 50

036
NZUS93 KARX 050810
HRRWXR

CURRENT HOURLY OBSERVATIONS ACROSS
MUCH OF THE UPPER MISSISSIPPI VALLEY
NATIONAL WEATHER SERVICE LA CROSSE WI
200 AM CST FRI FEB 05 2016


...SOUTHEAST MINNESOTA...


CITY           SKY/WX    TMP DP  RH WIND       PRES   REMARKS
ROCHESTER      CLOUDY     5   3  91 W8        30.27S WCI  -8
ROCHESTER/MAYO FAIR      13  11  92 CALM      30.29S
WINONA         CLEAR     14  12  92 CALM      30.33R
AUSTIN         CLOUDY     9   7  92 CALM      30.29S
ALBERT LEA       N/A      7   5  92 CALM      30.29S
DODGE CENTER   CLOUDY     5   1  85 W3        30.27S
PRESTON        CLOUDY     7   4  87 NW9       30.28S WCI  -6
OWATONNA       CLOUDY     7   3  85 CALM      30.29S
FARIBAULT        N/A      1   0  92 CALM      30.30S
$$

...ELSEWHERE IN MINNESOTA...


CITY           SKY/WX    TMP DP  RH WIND       PRES   REMARKS
MINNEAPOLIS    CLOUDY    10   7  87 SW5       30.31R WCI   2
INTNL FALLS    CLOUDY     6   2  83 CALM      30.19S
DULUTH         CLOUDY     4   1  88 CALM      30.20R
RED WING       CLOUDY     7   1  78 NW5       30.30S WCI  -2
REDWOOD FALLS  CLOUDY     6   2  83 SE5       30.29S WCI  -3
MANKATO        PTCLDY     9   7  92 SW5       30.30S WCI   0
WORTHINGTON    CLOUDY    10   7  85 SW12      30.26F WCI  -4
FAIRMONT       PTCLDY     5   1  85 SW8       30.28F WCI  -8
$$

...SOUTHWEST WISCONSIN...


CITY           SKY/WX    TMP DP  RH WIND       PRES   REMARKS
LA CROSSE      MOCLDY    13  11  92 CALM      30.32R FOG
PRAIRIE DU CHI CLOUDY    25  19  76 W9        30.31R WCI  16
BOSCOBEL       CLOUDY    26  21  81 NW9       30.31R WCI  17
LONE ROCK      CLOUDY    25  19  78 NW6       30.29R WCI  18
PLATTEVILLE    CLOUDY    25  22  89 NW12      30.27R WCI  14
FORT MC COY    FOG       13  12  96 CALM      30.30R VSB 1/2
CAMP DOUGLAS   CLOUDY    22  22 100 W8        30.26R WCI  13
VIROQUA        FAIR      18  16  90 NW3       30.25S
WIS DELLS      CLOUDY    22  19  86 NW5       30.25R WCI  16
$$

...ELSEWHERE IN WISCONSIN...


CITY           SKY/WX    TMP DP  RH WIND       PRES   REMARKS
MILWAUKEE      MOCLDY    28  23  81 SW3       30.24S
MADISON        CLOUDY    24  20  84 NW6       30.25R WCI  17
GREEN BAY      FLURRIES  21  17  84 W7        30.24S WCI  12
EAU CLAIRE     CLOUDY     9   6  88 SW5       30.28R WCI   1
BLACK RVR FLS  FAIR       7   3  86 CALM      30.28R FOG
MEDFORD        CLOUDY    19  14  84 W7        30.21R WCI   9
WAUSAU         CLOUDY    19  15  84 NW3       30.20R
WIS RAPIDS     CLOUDY    19  15  84 W5        30.25R WCI  12
MARSHFIELD     CLOUDY    20  15  81 NW7       30.22R WCI  11
RICE LAKE      CLOUDY     4   1  87 CALM      30.28R
$$

...NORTHEAST IOWA...


CITY           SKY/WX    TMP DP  RH WIND       PRES   REMARKS
WATERLOO       CLOUDY    11   8  88 NW7       30.33S WCI   0
DUBUQUE        CLOUDY    25  20  81 NW12      30.27R WCI  14
DECORAH        CLOUDY    16  14  93 W5        30.28R WCI   9
MASON CITY     CLOUDY     3   2  95 W8        30.32S WCI -10
CHARLES CITY   CLOUDY     5   5 100 W5        30.32R WCI  -4
OELWEIN        CLOUDY    18  14  86 W10       30.31R WCI   6
$$

...ELSEWHERE IN IOWA...


CITY           SKY/WX    TMP DP  RH WIND       PRES   REMARKS
DES MOINES     CLOUDY    17  11  77 NW3       30.37S
IOWA CITY      CLOUDY    25  18  74 NW13      30.34R WCI  14
FORT DODGE     CLOUDY     3  -2  78 CALM      30.34R
MARSHALLTOWN   CLOUDY     9   6  88 W8        30.33S WCI  -3
CEDAR RAPIDS   PTCLDY    20  17  88 NW16      30.31R WCI   6
$$

...NORTHERN ILLINOIS...


CITY           SKY/WX    TMP DP  RH WIND       PRES   REMARKS
CHICAGO-OHARE  PTCLDY    25  20  81 S3        30.25R
CHICAGO-MIDWAY PTCLDY    29  21  72 S7        30.26S WCI  22
MOLINE         CLOUDY    28  22  78 NW10      30.30R WCI  19
ROCKFORD       MOCLDY    28  24  85 CALM      30.26R
PEORIA         CLEAR     28  22  78 W10       30.30R WCI  19
$$

NOTE: "FAIR" INDICATES FEW OR NO CLOUDS BELOW 12,000 FEET WITH NO
SIGNIFICANT WEATHER AND/OR OBSTRUCTIONS TO VISIBILITY. WIND
SPEEDS ARE IN MILES-PER-HOUR.




USA.gov is the U.S. government's official web portal to all federal, state and local government web resources and services.